TimeEST,TemperatureF,Dew PointF,Humidity,Sea Level PressureIn,VisibilityMPH,Wind Direction,Wind SpeedMPH,Gust SpeedMPH,PrecipitationIn,Events,Conditions,WindDirDegrees,DateUTC
12:15 AM,12.9,-9.0,37,30.40,10.0,North,5.8,-,N/A,,Unknown,10,2013-01-28 05:15:00
12:35 AM,13.8,-9.0,36,30.40,10.0,WNW,10.4,-,N/A,,Unknown,290,2013-01-28 05:35:00
12:55 AM,13.8,-8.9,36,30.40,10.0,WNW,8.1,-,N/A,,Unknown,290,2013-01-28 05:55:00
1:15 AM,13.6,-8.5,37,30.40,10.0,West,8.1,-,N/A,,Unknown,280,2013-01-28 06:15:00
1:35 AM,13.1,-8.3,38,30.39,10.0,WNW,5.8,-,N/A,,Unknown,290,2013-01-28 06:35:00
1:55 AM,12.7,-7.4,40,30.40,10.0,WNW,6.9,-,N/A,,Unknown,290,2013-01-28 06:55:00
2:15 AM,11.8,-7.4,42,30.42,10.0,WNW,5.8,-,N/A,,Unknown,300,2013-01-28 07:15:00
2:35 AM,12.6,-8.3,39,30.42,10.0,NW,4.6,-,N/A,,Unknown,310,2013-01-28 07:35:00
2:55 AM,11.5,-7.1,43,30.40,10.0,WNW,6.9,-,N/A,,Unknown,290,2013-01-28 07:55:00
3:15 AM,11.3,-7.4,43,30.40,10.0,NW,6.9,-,N/A,,Unknown,320,2013-01-28 08:15:00
3:35 AM,11.3,-7.6,43,30.39,10.0,WNW,10.4,-,N/A,,Unknown,300,2013-01-28 08:35:00
3:55 AM,11.3,-7.8,42,30.38,10.0,WNW,9.2,-,N/A,,Unknown,290,2013-01-28 08:55:00
4:15 AM,9.9,-6.3,48,30.39,10.0,Calm,Calm,-,N/A,,Unknown,0,2013-01-28 09:15:00
4:35 AM,8.6,-5.4,53,30.39,10.0,West,4.6,-,N/A,,Unknown,280,2013-01-28 09:35:00
4:55 AM,7.5,-5.3,56,30.38,10.0,Calm,Calm,-,N/A,,Unknown,0,2013-01-28 09:55:00
5:15 AM,6.1,-4.0,63,30.39,10.0,Calm,Calm,-,N/A,,Unknown,0,2013-01-28 10:15:00
5:35 AM,7.5,-5.8,55,30.39,10.0,Calm,Calm,-,N/A,,Unknown,0,2013-01-28 10:35:00
5:55 AM,7.7,-5.4,55,30.39,10.0,Calm,Calm,-,N/A,,Unknown,0,2013-01-28 10:55:00
6:15 AM,6.8,-4.4,60,30.39,10.0,Calm,Calm,-,N/A,,Unknown,0,2013-01-28 11:15:00
6:35 AM,6.8,-5.6,57,30.39,10.0,Calm,Calm,-,N/A,,Unknown,0,2013-01-28 11:35:00
7:15 AM,7.2,-5.4,56,30.37,10.0,West,4.6,-,N/A,,Unknown,280,2013-01-28 12:15:00
7:35 AM,7.5,-4.7,57,30.37,10.0,Calm,Calm,-,N/A,,Unknown,0,2013-01-28 12:35:00
7:55 AM,7.7,-4.0,59,30.37,10.0,WNW,3.5,-,N/A,,Unknown,290,2013-01-28 12:55:00
8:15 AM,8.4,-4.2,57,30.36,10.0,Calm,Calm,-,N/A,,Unknown,0,2013-01-28 13:15:00
8:35 AM,9.1,-4.0,55,30.36,10.0,Calm,Calm,-,N/A,,Unknown,0,2013-01-28 13:35:00
8:55 AM,9.3,-3.6,56,30.36,10.0,Calm,Calm,-,N/A,,Unknown,0,2013-01-28 13:55:00
9:15 AM,10.2,-3.1,55,30.36,10.0,Calm,Calm,-,N/A,,Unknown,0,2013-01-28 14:15:00
9:35 AM,11.1,-2.7,54,30.35,10.0,Calm,Calm,-,N/A,,Unknown,0,2013-01-28 14:35:00
9:55 AM,12.0,-4.2,48,30.35,10.0,WNW,3.5,-,N/A,,Unknown,290,2013-01-28 14:55:00
10:15 AM,12.2,-4.0,48,30.34,10.0,Calm,Calm,-,N/A,,Unknown,0,2013-01-28 15:15:00
10:35 AM,13.5,-2.6,49,30.33,10.0,Calm,Calm,-,N/A,,Unknown,0,2013-01-28 15:35:00
10:55 AM,14.5,-2.0,48,30.32,10.0,Calm,Calm,-,N/A,,Unknown,0,2013-01-28 15:55:00
11:15 AM,15.8,-0.8,48,30.31,10.0,Calm,Calm,-,N/A,,Unknown,0,2013-01-28 16:15:00
11:35 AM,16.7,-1.8,44,30.30,10.0,Calm,Calm,-,N/A,,Unknown,0,2013-01-28 16:35:00
11:55 AM,17.4,-2.0,42,30.28,10.0,Calm,Calm,-,N/A,,Unknown,0,2013-01-28 16:55:00
12:15 PM,18.0,-3.3,39,30.27,10.0,East,3.5,-,N/A,,Unknown,80,2013-01-28 17:15:00
12:35 PM,18.0,-1.5,43,30.26,10.0,Calm,Calm,-,N/A,,Unknown,0,2013-01-28 17:35:00
12:55 PM,17.6,7.3,64,30.24,2.0,Calm,Calm,-,N/A,Snow,Light Snow,0,2013-01-28 17:55:00
1:15 PM,17.2,11.5,78,30.22,1.5,NE,3.5,-,N/A,Snow,Light Snow,50,2013-01-28 18:15:00
1:35 PM,17.1,12.7,83,30.21,1.0,Calm,Calm,-,N/A,Snow,Light Snow,0,2013-01-28 18:35:00
1:55 PM,17.1,13.5,86,30.20,1.0,Calm,Calm,-,N/A,Snow,Light Snow,0,2013-01-28 18:55:00
2:15 PM,17.6,14.0,86,30.19,1.0,Calm,Calm,-,N/A,Snow,Light Snow,0,2013-01-28 19:15:00
2:35 PM,17.6,14.5,88,30.19,1.2,Calm,Calm,-,N/A,Snow,Light Snow,0,2013-01-28 19:35:00
2:55 PM,18.1,15.3,88,30.18,0.8,Calm,Calm,-,N/A,Snow,Light Snow,0,2013-01-28 19:55:00
3:15 PM,18.1,15.6,90,30.16,0.8,Calm,Calm,-,0.01,Snow,Snow,0,2013-01-28 20:15:00
3:35 PM,18.3,15.8,90,30.15,0.8,Calm,Calm,-,0.01,Snow,Light Snow,0,2013-01-28 20:35:00
3:55 PM,18.3,16.2,91,30.15,0.8,Calm,Calm,-,0.02,Snow,Light Snow,0,2013-01-28 20:55:00
4:15 PM,18.5,16.5,92,30.14,1.0,Calm,Calm,-,0.01,Snow,Light Snow,0,2013-01-28 21:15:00
4:35 PM,18.5,16.5,92,30.13,0.8,Calm,Calm,-,0.01,Snow,Snow,0,2013-01-28 21:35:00
4:55 PM,18.5,16.7,93,30.13,1.0,Calm,Calm,-,0.02,Snow,Light Snow,0,2013-01-28 21:55:00
5:15 PM,18.5,16.5,92,30.12,1.5,Calm,Calm,-,0.01,Snow,Light Snow,0,2013-01-28 22:15:00
5:35 PM,18.5,16.5,92,30.12,3.0,Calm,Calm,-,0.01,Snow,Light Snow,0,2013-01-28 22:35:00
5:55 PM,18.5,16.7,93,30.11,3.0,Calm,Calm,-,0.01,Snow,Light Snow,0,2013-01-28 22:55:00
6:15 PM,18.7,16.7,92,30.11,4.0,Calm,Calm,-,N/A,Snow,Light Snow,0,2013-01-28 23:15:00
6:55 PM,18.5,16.7,93,30.09,2.0,Calm,Calm,-,N/A,Snow,Light Snow,0,2013-01-28 23:55:00
7:15 PM,18.5,17.1,94,30.09,1.2,Calm,Calm,-,0.01,Snow,Light Snow,0,2013-01-29 00:15:00
7:35 PM,18.9,17.2,93,30.08,2.5,Calm,Calm,-,0.01,Snow,Light Snow,0,2013-01-29 00:35:00
7:55 PM,18.9,17.2,93,30.08,3.0,Calm,Calm,-,0.01,Snow,Light Snow,0,2013-01-29 00:55:00
8:15 PM,18.9,17.2,93,30.07,1.8,Calm,Calm,-,0.01,Snow,Light Snow,0,2013-01-29 01:15:00
8:35 PM,18.9,17.4,94,30.06,2.0,Calm,Calm,-,N/A,Snow,Light Snow,0,2013-01-29 01:35:00
8:55 PM,19.0,17.4,93,30.06,5.0,Calm,Calm,-,0.01,Snow,Light Snow,0,2013-01-29 01:55:00
9:15 PM,19.0,17.4,93,30.05,1.8,Calm,Calm,-,N/A,Snow,Light Snow,0,2013-01-29 02:15:00
9:35 PM,19.0,17.4,93,30.04,2.5,Calm,Calm,-,N/A,Snow,Light Snow,0,2013-01-29 02:35:00
9:55 PM,19.0,17.4,93,30.04,4.0,Calm,Calm,-,N/A,Snow,Light Snow,0,2013-01-29 02:55:00
10:15 PM,19.0,17.4,93,30.03,4.0,Calm,Calm,-,N/A,Snow,Light Snow,0,2013-01-29 03:15:00
10:35 PM,19.2,17.6,93,30.04,2.5,Calm,Calm,-,0.01,Snow,Light Snow,0,2013-01-29 03:35:00
10:55 PM,19.2,17.6,93,30.03,2.5,Calm,Calm,-,0.01,Snow,Light Snow,0,2013-01-29 03:55:00
11:15 PM,19.2,17.6,93,30.03,1.2,Calm,Calm,-,N/A,Snow,Light Snow,0,2013-01-29 04:15:00
11:35 PM,19.2,17.6,93,30.03,1.5,Calm,Calm,-,0.01,Snow,Light Snow,0,2013-01-29 04:35:00
11:55 PM,19.2,17.6,93,30.03,1.5,Calm,Calm,-,0.01,Snow,Light Snow,0,2013-01-29 04:55:00